Simultaneous Nadir Overpasses (SNOs) Predictions

Prediction of SNOs between LANDSAT-8 and METOP-B Satellite Orbit:

Table of predicted SNOs for the next 14.0 days since TLE Epoch: 6/5/2021
Index Date (LANDSAT-8) Time (LANDSAT-8) Lat,Lon (LANDSAT-8) SZA (LANDSAT-8 ) Date (METOP-B) Time (METOP-B) Lat,Lon (METOP-B) SZA (METOP-B ) Distance(km) Time Diff (sec)
1 06/06/2021 09:47:10 81.11, 73.00 60.61 06/06/2021 09:46:14 81.10, 73.00 60.58 0.53 56
2 06/06/2021 10:36:36 -81.13,-119.07 119.36 06/06/2021 10:36:54 -81.12,-119.20 119.37 2.25 18
3 06/09/2021 05:21:26 81.09, 139.21 60.30 06/09/2021 05:20:37 81.10, 139.32 60.30 2.00 49
4 06/09/2021 06:10:52 -81.11, -52.85 119.66 06/09/2021 06:11:17 -81.12, -52.85 119.64 0.53 25
5 06/12/2021 00:55:42 81.10,-154.25 60.10 06/12/2021 00:55:01 81.10,-154.39 60.07 2.39 41
6 06/12/2021 01:45:08 -81.12, 13.72 119.85 06/12/2021 01:45:40 -81.13, 13.87 119.82 2.59 32
7 06/14/2021 20:29:58 81.11, -87.73 59.95 06/14/2021 20:29:24 81.11, -87.73 59.94 0.12 34
8 06/14/2021 21:19:24 -81.13, 80.26 120.00 06/14/2021 21:20:04 -81.13, 80.18 119.99 1.38 40
9 06/17/2021 16:04:13 81.11, -21.24 59.85 06/17/2021 16:03:46 81.11, -21.08 59.86 2.85 27



Historial Predications of SNOs between LANDSAT-8 and METOP-B
